Voltar ao catálogo

CZ-6A DEB

AtivoPO
NORAD 61809·DEBRIS·🇨🇳 China

Lançado Aug 6, 2024 de Taiyuan Satellite Launch Center

Loading…

Próximas Passagens (próximas 24 horas)

TLE

AtualizadoSource: Space-Track

Época: Sep 14, 2026, 10:20 UTC

1 61809U 24140ABZ 26257.43077576  .00000970  00000-0  13060-3 0  9995
2 61809  88.9971 257.5927 0164090 253.3314 104.9836 14.69396799108672

Acompanhe CZ-6A DEB em tempo real com AllMySat

Download on the App Store